Location: Camp Crooked Creek
(37.9149°N, 85.6607°W)
Time: 13:27:44
(UTC-04:00)

Amateur Radio Satellites - All Passes

Search period start: 19 April 2014 12:57
Search period end: 20 April 2014 12:57
Location: Camp Crooked Creek, 37.9149°N, 85.6607°W

Satellite Date Start Highest point End Downlink Frequencies (MHz)
Time Altitude Azimuth
PANSAT 19 Apr 13:36:09 13:37:46 12° 196° (SSW) 13:39:23 not established
KITSAT 1 19 Apr 13:51:04 13:59:01 62° 247° (WSW) 14:06:54 435.175 FM
AO-27 19 Apr 13:57:43 14:01:32 21° 65° (ENE) 14:05:21 436.795 MHz FM
ITAMSAT 1 19 Apr 14:07:59 14:12:12 26° 67° (ENE) 14:16:24 435.822 SSB
Oscar 19 19 Apr 14:12:06 14:17:04 53° 72° (ENE) 14:22:05 437.125 CW, 437.150 USB
AO-Echo 19 Apr 14:15:58 14:20:07 24° 67° (ENE) 14:24:12 ?
Oscar 16 19 Apr 14:20:14 14:25:19 69° 74° (ENE) 14:30:27 437.025 USB, Beacon 2401.1428
TMSAT-1 19 Apr 14:40:27 14:41:52 11° 60° (ENE) 14:43:16 436.925 FM
Uribyol 2 19 Apr 14:55:17 15:00:26 78° 75° (ENE) 15:05:36 436.500 FM
AO-7 19 Apr 15:04:09 15:07:00 12° 47° (NE) 15:09:50 29.400 - 29.500 MHz
RS-15 19 Apr 15:09:05 15:18:14 29° 37° (NE) 15:27:27 29.354 - 29.394 USB, Beacon 29.352 USB
SO-50 19 Apr 15:11:59 15:13:37 12° 107° (ESE) 15:15:16 436.795 FM
JAS-1B 19 Apr 15:20:23 15:25:59 22° 64° (ENE) 15:30:58 435.800 - 435.900 CW/SSB
OPAL 19 Apr 15:27:35 15:31:06 18° 95° (E) 15:34:35 ?
Gurwin Techsat 1B 19 Apr 15:27:47 15:32:48 45° 71° (ENE) 15:37:51 435.225 FM
AO-27 19 Apr 15:35:47 15:40:43 44° 261° (W) 15:45:41 436.795 MHz FM
ISS 19 Apr 15:46:30 15:49:41 44° 135° (SE) 15:52:53 145.800 FM
ITAMSAT 1 19 Apr 15:46:46 15:51:30 36° 262° (W) 15:56:14 435.822 SSB
Oscar 19 19 Apr 15:53:30 15:56:42 17° 268° (W) 15:59:56 437.125 CW, 437.150 USB
AO-Echo 19 Apr 15:53:47 15:58:39 38° 262° (W) 16:03:28 ?
Oscar 10/S400 19 Apr 15:57:19 16:47:17 14° 275° (W) 17:57:38 145.825 - 145.975 CW/USB, Beacon 145.810 USB
Oscar 16 19 Apr 16:03:03 16:05:08 12° 270° (W) 16:07:14 437.025 USB, Beacon 2401.1428
Uosat F 19 Apr 16:12:39 16:17:02 31° 68° (ENE) 16:21:24 435.120 FM
TMSAT-1 19 Apr 16:15:41 16:20:59 90° 250° (WSW) 16:26:18 436.925 FM
Uribyol 2 19 Apr 16:39:15 16:40:27 11° 270° (W) 16:41:38 436.500 FM
SO-50 19 Apr 16:49:10 16:53:36 63° 303° (WNW) 16:58:05 436.795 FM
AO-7 19 Apr 16:50:00 16:58:04 60° 67° (ENE) 17:06:09 29.400 - 29.500 MHz
OPAL 19 Apr 17:05:10 17:10:13 51° 290° (WNW) 17:15:15 ?
JAS-1B 19 Apr 17:07:49 17:16:10 70° 257° (WSW) 17:23:07 435.800 - 435.900 CW/SSB
Gurwin Techsat 1B 19 Apr 17:09:04 17:12:57 21° 266° (W) 17:16:51 435.225 FM
RS-15 19 Apr 17:21:04 17:32:04 88° 241° (WSW) 17:43:24 29.354 - 29.394 USB, Beacon 29.352 USB
ISS 19 Apr 17:23:51 17:26:33 22° 332° (NNW) 17:29:17 145.800 FM
UOSAT-12 19 Apr 17:33:14 17:36:23 19° 110° (ESE) 17:39:34 437.025 FM, 437.400 FM
Uosat F 19 Apr 17:51:30 17:55:46 28° 264° (W) 18:00:03 435.120 FM
JAS-2 19 Apr 18:42:32 18:45:57 17° 64° (ENE) 18:49:13 435.800 - 435.900 CW/SSB, 435.910 FM
AO-7 19 Apr 18:44:26 18:51:13 28° 264° (W) 18:58:04 29.400 - 29.500 MHz
Hamsat 19 Apr 18:56:49 19:00:54 55° 75° (ENE) 19:05:03 145.90 MHz
UOSAT-12 19 Apr 19:11:50 19:16:10 43° 306° (NW) 19:20:37 437.025 FM, 437.400 FM
RS-15 19 Apr 19:35:54 19:42:51 19° 260° (W) 19:49:58 29.354 - 29.394 USB, Beacon 29.352 USB
STRAND 1 19 Apr 19:43:41 19:48:07 29° 97° (E) 19:52:31 ?
SO-67 19 Apr 20:16:08 20:19:37 87° 78° (ENE) 20:23:08 435.3500 MHz FM
JAS-2 19 Apr 20:24:46 20:30:40 62° 258° (WSW) 20:36:01 435.800 - 435.900 CW/SSB, 435.910 FM
Hamsat 19 Apr 20:36:17 20:37:14 11° 270° (W) 20:38:10 145.90 MHz
Saudisat 1A 19 Apr 21:00:35 21:05:00 74° 58° (ENE) 21:09:21 436.775 MHz
HO-68 19 Apr 21:06:00 21:12:17 35° 64° (ENE) 21:18:35 435.675 MHz FM
STRAND 1 19 Apr 21:22:51 21:27:13 30° 292° (WNW) 21:31:35 ?
Oscar 11 19 Apr 22:09:10 22:13:00 32° 71° (ENE) 22:16:52 145.825 FM, Beacon 2401.500 USB
MaSat-1 19 Apr 22:13:03 22:16:02 51° 113° (ESE) 22:18:39 437.345 MHz
ISS 19 Apr 22:16:57 22:20:00 31° 32° (NNE) 22:23:02 145.800 FM
HO-68 19 Apr 22:53:07 22:59:47 42° 261° (W) 23:06:31 435.675 MHz FM
FUNcube-1 19 Apr 23:35:53 23:40:06 83° 258° (WSW) 23:44:18 145.950 - 145.970 MHz USB
SO-50 19 Apr 23:45:04 23:45:35 10° 39° (NE) 23:46:06 436.795 FM
Oscar 11 19 Apr 23:46:10 23:49:15 19° 266° (W) 23:52:22 145.825 FM, Beacon 2401.500 USB
ISS 19 Apr 23:53:48 23:56:40 26° 228° (SW) 23:59:31 145.800 FM
Sapphire 20 Apr 00:22:43 00:26:27 19° 105° (ESE) 00:30:12 437.095 MHz 1200 baud AX-25 AFSK
PCSat 20 Apr 01:05:46 01:10:59 52° 112° (ESE) 01:16:14 145.825 MHz
SO-50 20 Apr 01:22:20 01:26:59 69° 58° (ENE) 01:31:41 436.795 FM
Oscar 10/S400 20 Apr 01:46:02 01:57:43 17° 132° (SE) 02:14:05 145.825 - 145.975 CW/USB, Beacon 145.810 USB
Sapphire 20 Apr 02:04:09 02:09:25 52° 301° (WNW) 02:14:44 437.095 MHz 1200 baud AX-25 AFSK
UOSAT-12 20 Apr 02:04:20 02:06:46 14° 42° (NE) 02:09:11 437.025 FM, 437.400 FM
KITSAT 1 20 Apr 02:23:56 02:30:00 24° 104° (ESE) 02:36:03 435.175 FM
Oscar 19 20 Apr 02:26:15 02:30:13 22° 94° (E) 02:34:09 437.125 CW, 437.150 USB
Oscar 16 20 Apr 02:34:14 02:38:41 28° 96° (E) 02:43:06 437.025 USB, Beacon 2401.1428
OPAL 20 Apr 02:40:41 02:44:50 27° 65° (ENE) 02:49:02 ?
PCSat 20 Apr 02:50:32 02:54:42 22° 310° (NW) 02:58:54 145.825 MHz
SO-50 20 Apr 03:05:16 03:06:59 12° 253° (WSW) 03:08:43 436.795 FM
Uribyol 2 20 Apr 03:10:13 03:14:49 32° 97° (E) 03:19:24 436.500 FM
UOSAT-12 20 Apr 03:42:48 03:47:33 84° 240° (WSW) 03:52:13 437.025 FM, 437.400 FM
Gurwin Techsat 1B 20 Apr 03:46:32 03:50:28 21° 94° (E) 03:54:22 435.225 FM
AO-27 20 Apr 03:50:18 03:55:29 76° 103° (ESE) 04:00:39 436.795 MHz FM
ITAMSAT 1 20 Apr 04:00:52 04:06:04 87° 284° (WNW) 04:11:14 435.822 SSB
AO-Echo 20 Apr 04:02:41 04:07:29 81° 102° (ESE) 04:12:10 ?
Oscar 19 20 Apr 04:04:49 04:09:41 41° 289° (WNW) 04:14:31 437.125 CW, 437.150 USB
Oscar 16 20 Apr 04:13:24 04:17:59 32° 291° (WNW) 04:22:33 437.025 USB, Beacon 2401.1428
KITSAT 1 20 Apr 04:16:33 04:24:38 70° 301° (WNW) 04:32:46 435.175 FM
OPAL 20 Apr 04:19:02 04:23:32 34° 261° (W) 04:28:08 ?
TMSAT-1 20 Apr 04:33:34 04:38:34 42° 98° (E) 04:43:33 436.925 FM
Uribyol 2 20 Apr 04:49:47 04:54:11 29° 292° (WNW) 04:58:34 436.500 FM
AO-7 20 Apr 04:54:55 05:00:44 21° 93° (E) 05:06:32 29.400 - 29.500 MHz
JAS-1B 20 Apr 04:55:20 05:00:18 31° 97° (E) 05:05:31 435.800 - 435.900 CW/SSB
Gurwin Techsat 1B 20 Apr 05:25:35 05:30:36 44° 289° (WNW) 05:35:36 435.225 FM
AO-27 20 Apr 05:32:07 05:34:19 13° 299° (WNW) 05:36:32 436.795 MHz FM
RS-15 20 Apr 05:37:04 05:42:09 14° 98° (E) 05:47:09 29.354 - 29.394 USB, Beacon 29.352 USB
ITAMSAT 1 20 Apr 05:44:12 05:44:44 10° 301° (WNW) 05:45:16 435.822 SSB
AO-Echo 20 Apr 05:45:16 05:45:31 10° 299° (WNW) 05:45:46 ?
Uosat F 20 Apr 06:00:04 06:05:05 79° 285° (WNW) 06:10:04 435.120 FM
TMSAT-1 20 Apr 06:14:08 06:18:12 23° 294° (WNW) 06:22:16 436.925 FM
KITSAT 1 20 Apr 06:16:23 06:21:37 18° 324° (NW) 06:26:53 435.175 FM
AO-7 20 Apr 06:45:54 06:54:13 77° 290° (WNW) 07:02:31 29.400 - 29.500 MHz
JAS-1B 20 Apr 06:46:06 06:50:59 31° 293° (WNW) 06:56:02 435.800 - 435.900 CW/SSB
Hamsat 20 Apr 06:46:34 06:48:10 12° 91° (E) 06:49:45 145.90 MHz
STRAND 1 20 Apr 06:57:56 07:02:35 36° 70° (ENE) 07:07:14 ?
JAS-2 20 Apr 07:36:02 07:39:23 16° 94° (E) 07:42:53 435.800 - 435.900 CW/SSB, 435.910 FM
RS-15 20 Apr 07:41:15 07:52:35 75° 116° (ESE) 08:03:31 29.354 - 29.394 USB, Beacon 29.352 USB
MaSat-1 20 Apr 08:15:31 08:18:34 64° 247° (WSW) 08:22:14 437.345 MHz
Hamsat 20 Apr 08:20:11 08:24:27 54° 285° (WNW) 08:28:42 145.90 MHz
STRAND 1 20 Apr 08:37:44 08:41:49 24° 265° (W) 08:45:55 ?
AO-7 20 Apr 08:41:00 08:45:40 17° 309° (NW) 08:50:22 29.400 - 29.500 MHz
Sapphire 20 Apr 09:12:17 09:14:55 14° 44° (NE) 09:17:32 437.095 MHz 1200 baud AX-25 AFSK
SO-67 20 Apr 09:15:28 09:18:55 56° 284° (WNW) 09:22:20 435.3500 MHz FM
JAS-2 20 Apr 09:19:23 09:24:44 61° 286° (WNW) 09:30:39 435.800 - 435.900 CW/SSB, 435.910 FM
PANSAT 20 Apr 09:51:27 09:54:04 17° 171° (S) 09:56:41 not established
PCSat 20 Apr 09:55:40 10:00:26 30° 53° (NE) 10:05:09 145.825 MHz
RS-15 20 Apr 09:56:04 10:05:54 34° 319° (NW) 10:15:35 29.354 - 29.394 USB, Beacon 29.352 USB
KITSAT 1 20 Apr 10:18:43 10:21:43 12° 27° (NNE) 10:24:43 435.175 FM
HO-68 20 Apr 10:22:17 10:29:01 42° 99° (E) 10:35:42 435.675 MHz FM
Sapphire 20 Apr 10:53:43 10:59:10 85° 63° (ENE) 11:04:34 437.095 MHz 1200 baud AX-25 AFSK
Saudisat 1A 20 Apr 11:05:57 11:09:48 29° 113° (ESE) 11:13:41 436.775 MHz
FUNcube-1 20 Apr 11:27:26 11:30:43 21° 95° (E) 11:34:02 145.950 - 145.970 MHz USB
PANSAT 20 Apr 11:30:53 11:33:43 19° 184° (S) 11:36:32 not established
Oscar 11 20 Apr 11:34:05 11:38:28 86° 104° (ESE) 11:42:50 145.825 FM, Beacon 2401.500 USB
PCSat 20 Apr 11:38:56 11:43:51 36° 250° (WSW) 11:48:45 145.825 MHz
HO-68 20 Apr 12:10:10 12:16:33 36° 296° (WNW) 12:22:55 435.675 MHz FM
KITSAT 1 20 Apr 12:11:56 12:19:37 44° 52° (NE) 12:27:12 435.175 FM
RS-15 20 Apr 12:17:17 12:23:10 15° 353° (N) 12:29:02 29.354 - 29.394 USB, Beacon 29.352 USB
Sapphire 20 Apr 12:40:25 12:41:47 11° 258° (WSW) 12:43:09 437.095 MHz 1200 baud AX-25 AFSK
Saudisat 1A 20 Apr 12:45:30 12:49:22 28° 309° (NW) 12:53:14 436.775 MHz
